Satellite-Ground Cal/Val Site Overpasses Predictions

Prediction of Satellite NPP Overpassing Cal/Val Site: Antarctic Dome C

Ground Cal/Val Site Location: Latitude: -75.10, Longitude: 123.35; Satellite-Ground Site NADIR distance within 100 km.

Table of predicted overpasses for the next 14.0 days since TLE Epoch: 3/8/2025
Interval Starting Time Ending Time Minimum Distance Time Minimum Distance (km)
1 03/08/2025 14:55:33 03/08/2025 14:56:02 03/08/2025 14:55:47 24.09
2 03/09/2025 14:36:49 03/09/2025 14:37:04 03/09/2025 14:36:56 83.19
3 03/10/2025 07:38:21 03/10/2025 07:38:48 03/10/2025 07:38:35 33.85
4 03/11/2025 07:19:34 03/11/2025 07:19:52 03/11/2025 07:19:43 76.41
5 03/13/2025 15:01:45 03/13/2025 15:02:09 03/13/2025 15:01:57 60.19
6 03/14/2025 14:42:54 03/14/2025 14:43:19 03/14/2025 14:43:07 49.12
7 03/15/2025 07:44:34 03/15/2025 07:44:55 03/15/2025 07:44:45 68.15
8 03/16/2025 07:25:40 03/16/2025 07:26:07 03/16/2025 07:25:54 40.06
9 03/18/2025 15:08:04 03/18/2025 15:08:10 03/18/2025 15:08:07 96.96
10 03/19/2025 14:49:01 03/19/2025 14:49:30 03/19/2025 14:49:15 14.45
